{"data":{"norad_id":60938,"intl_designator":"2024-155Q","name":"STARLINK-32262","alt_names":[],"object_type":"PAYLOAD","status":"ACTIVE","operator":null,"country":"US","launch_date":"2024-08-31","launch_site_code":"AFWTR","launch_vehicle":null,"mission":null,"orbit_class":"UNKNOWN","rcs_meters":null,"size_class":null,"mass_kg":null,"dimensions":null,"purposes":["comms"],"wikipedia_slug":null,"has_3d_model":false,"image_url":null,"decayed_at":null,"tle_current":{"epoch":"2026-07-14T11:48:23.576256Z","epoch_age_seconds":6064464,"freshness":"OLD","line1":"1 60938U 24155Q   26195.49193954  .13568272  11970-4  27501-2 0  9993","line2":"2 60938  53.1183 199.7913 0007442 175.8334 184.2773 16.30470952106642","mean_motion":16.30470952,"eccentricity":0.0007442,"inclination_deg":53.1183,"raan_deg":199.7913,"arg_perigee_deg":175.8334,"mean_anomaly_deg":184.2773,"bstar":0.0027501,"rev_number":10664,"period_min":88.318040762004,"perigee_km":186.38550805205,"apogee_km":196.16342007516,"semimajor_km":6569.4114640636,"source":"CELESTRAK","updated_at":"2026-07-15T09:01:25.538020Z"}}}